Regional Weather Roundup
Issued by NWS Northern Indiana

Home | Current Version | Previous Version | Text Only | Print | Product List | Glossary Off
Versions: 1 2 3 4 5 6 7 8 9 10 11 12 13 14 15 16 17 18 19 20 21 22 23 24 25 26 27 28 29 30 31 32 33 34 35 36 37 38 39 40 41 42 43 44 45 46 47 48 49 50

000
ASUS43 KIWX 312000
RWRIWX

KIWX WEATHER ROUNDUP
NATIONAL WEATHER SERVICE NORTHERN INDIANA
400 PM EDT TUE MAY 31 2016

NOTE: "FAIR" INDICATES FEW OR NO CLOUDS BELOW 12,000 FEET WITH NO
SIGNIFICANT WEATHER AND/OR OBSTRUCTIONS TO VISIBILITY.

* THESE STATIONS ARE NOT UNDER NWS QUALITY CONTROL. THEY ALSO MAY NOT
  REPORT WEATHER SUCH AS PRECIPITATION OR FOG.

INZ001>027-312100-
NORTHERN INDIANA

CITY           SKY/WX    TMP DP  RH WIND       PRES   REMARKS
VALPARAISO     TSTM      72  61  68 S24G32    30.00R
LAPORTE*       MOSUNNY   87  54  32 E12       29.97F
SOUTH BEND     MOSUNNY   82  53  36 E7        29.98F
GOSHEN         SUNNY     86  51  29 MISG      29.98F
ANGOLA*          N/A     84  48  28 E6        30.01F
FORT WAYNE     PTSUNNY   85  56  37 NE12      29.99F
PERU/GRISSOM   PTSUNNY   84  57  39 SW9       29.94F

$$
INZ028>050-312100-
CENTRAL INDIANA

CITY           SKY/WX    TMP DP  RH WIND       PRES   REMARKS
LAFAYETTE      CLOUDY    87  56  34 W9        29.93F
KOKOMO*        CLOUDY    84  55  37 E5        29.95F
MUNCIE*        PTSUNNY   89  51  27 VRB5      29.96F
INDIANAPOLIS   MOSUNNY   86  59  39 SE13G20   29.95F

$$
MIZ043>046-050>051-056>058-064>065-071>073-077>080-312100-
SOUTHWEST LOWER MICHIGAN

CITY           SKY/WX    TMP DP  RH WIND       PRES   REMARKS
BATTLE CREEK   CLOUDY    81  47  30 SE10      30.03F
BENTON HARBOR  MOSUNNY   83  51  33 SE8       29.98F
COLDWATER*     SUNNY     82  46  29 NE9       30.02F
HILLSDALE*     MOSUNNY   82  30  15 NE7       30.04F
HOLLAND        MOSUNNY   86  48  26 SE13G18   30.00F
GRAND RAPIDS   PTSUNNY   85  48  27 MISG      30.02F
KALAMAZOO      CLOUDY    82  46  28 E7G20     30.02F
STURGIS*       SUNNY     85  46  26 SE10      30.00F
THREE RIVERS*  FAIR      82  43  24 E8        30.01F

$$
OHZ001>008-015>018-024>025-312100-
NORTHWEST OHIO

CITY           SKY/WX    TMP DP  RH WIND       PRES   REMARKS
DEFIANCE       MOSUNNY   85  49  28 E9        30.01F
FINDLAY        MOSUNNY   83  50  31 NE10      30.00S
TOLEDO EXPRESS MOSUNNY   83  49  30 NE9       30.02F
TOLEDO METCALF MOSUNNY   82  50  32 NE13      30.04F
LIMA           MOSUNNY   85  51  31 NE6       30.00S

$$
AND FOR LAKE MICHIGAN COASTAL AND OPEN LAKE BUOY OBSERVATIONS

STATION/POSITION TEMP    WIND        PRES    VSBY  WAVE
                 AIR SEA DIR/SP/G                  HT/PER
                 (F)     (DEG/KT/KT) (MB)    (MI)  (FT/S)
CALUMET HARBOR    67      50/ 12/ 14 1014.0F
MICHIGAN CITY     81      90/  9/ 12   N/A
BURNS HARBOR      71      50/ 12/ 14 1014.6F
SAINT JOSEPH      84     360/  1/  4 1016.9S
SOUTH LAKE BUOY   59 55   70/  4/  6 1015.8          0
4 MI NW BRIDGMAN  75 67  130/  4/  6   N/A           0
MICHIGAN CITY     68 63   40/  8/ 10   N/A           0

$$
&&




USA.gov is the U.S. government's official web portal to all federal, state and local government web resources and services.